RH
75 65 43 26 26 38 45 31 26 19 19 45 54 53 58 69 60 58 75 67 84 94 91 95 96 95 94 92 92 91 90 90 90 91 92 92 91 90 90 89 88 87 81 78 75 74 74 78 82
43 38 32 31 35 38 28 29 24 19 32 50 49 52 57 70 55 70 70 79 80 91 90 95 96 95 94 94 93 92 90 90 90 91 92 92 91 90 89 90 90 87 80 77 74 73 73 76 81
40 33 35 34 46 37 33 25 19 19 22 38 55 54 52 56 52 64 72 80 88 92 90 96 96 96 94 95 94 93 92 92 92 92 91 91 90 89 87 89 90 87 80 78 75 74 75 79 80
32 31 32 34 40 29 26 20 20 20 29 57 51 50 60 60 54 57 75 81 91 96 92 99 96 95 95 95 94 94 94 94 94 93 92 91 90 89 88 90 91 87 82 79 77 76 78 80 79
36 37 42 51 35 24 22 20 21 19 25 60 64 64 60 74 64 67 75 73 87 96 96 96 97 96 94 94 94 95 95 95 94 94 93 92 91 90 91 91 92 90 88 83 80 80 81 79 78
40 38 47 54 39 30 26 22 21 21 40 60 67 75 71 72 70 74 70 76 83 95 95 93 97 96 96 96 97 96 96 96 96 95 94 93 92 92 91 92 92 92 92 90 86 84 82 78 78
43 48 53 50 41 32 25 21 22 20 53 51 67 64 71 67 62 68 73 84 90 95 97 93 92 96 97 99 98 98 97 97 97 96 96 95 93 93 92 92 92 92 91 89 86 84 83 81 77
41 43 60 49 41 36 25 22 19 19 22 58 63 51 44 57 81 78 82 92 96 97 99 94 90 90 95 99 99 98 98 98 97 97 97 96 95 94 94 93 93 93 91 89 87 86 85 83 80
36 48 57 48 38 28 24 24 18 22 62 54 53 54 51 54 85 91 98 99 98 96 99 99 95 91 93 94 98 99 98 98 98 97 97 99 98 96 95 96 94 94 92 91 89 87 87 85 83
40 54 45 35 29 28 24 30 21 20 38 46 51 48 50 60 86 92 95 97 98 98 96 98 97 96 96 90 94 99 99 99 99 99 98 99 98 98 96 96 96 94 94 92 91 89 87 88 93
41 43 35 31 27 28 26 25 22 21 23 37 44 42 51 57 83 93 89 88 89 94 97 98 99 99 99 95 94 97 98 99 100 99 99 99 98 98 99 99 99 99 96 99 96 96 97 94 94
40 32 30 31 26 29 28 24 21 20 18 16 29 42 45 58 69 83 85 86 92 96 96 97 98 98 98 98 96 95 97 100 100 99 99 99 100 99 99 99 99 100 99 99 99 99 97 96 93
34 31 27 26 27 28 25 24 22 22 18 17 37 41 42 56 62 70 74 80 85 93 95 98 97 97 98 98 99 99 99 99 99 99 99 99 99 98 98 99 99 97 96 100 99 99 98 97 95
31 30 30 31 32 28 27 26 26 19 20 18 44 47 47 56 58 62 67 73 80 82 88 94 96 96 97 97 97 98 98 98 98 98 97 97 98 98 98 99 99 99 99 99 99 99 98 98 95
32 35 33 27 31 28 26 30 26 20 19 20 50 51 46 51 53 59 62 65 70 75 80 90 93 95 96 97 96 96 95 95 98 98 97 96 97 97 97 98 99 98 99 98 99 98 98 98 92
38 41 45 29 33 30 26 34 24 22 22 20 21 36 56 52 53 60 63 62 65 77 84 88 85 92 95 96 94 90 93 96 96 98 98 96 96 96 97 98 98 98 98 98 98 98 98 93 94
49 54 46 33 28 32 30 35 25 25 23 22 22 23 27 54 53 52 54 51 61 75 82 88 88 92 92 93 97 96 95 97 97 97 98 96 96 95 96 98 97 97 97 98 95 96 96 94 85
48 49 41 42 30 35 38 36 28 26 26 25 24 29 47 59 54 61 74 81 52 73 84 85 89 92 93 98 98 99 99 98 98 97 95 94 94 95 96 98 97 96 96 96 93 88 86 76 79
38 40 45 43 30 38 37 43 34 26 31 29 26 31 52 59 81 92 95 96 92 92 89 89 89 94 96 98 99 99 99 99 98 98 96 96 97 96 97 97 97 96 97 96 95 88 79 77 70
45 48 50 40 33 34 38 35 30 30 30 28 24 29 50 77 86 89 96 99 92 92 89 94 93 96 93 95 98 97 98 98 96 98 97 96 96 97 98 98 98 98 99 98 99 96 96 91 90
49 50 48 46 34 32 45 40 35 29 29 24 26 29 42 68 85 86 89 97 99 97 97 94 95 95 94 92 92 96 95 96 97 98 98 97 96 97 97 98 98 98 99 99 99 99 99 99 97
58 41 41 41 45 53 41 49 38 38 33 28 26 49 59 72 76 78 83 95 99 96 95 95 95 94 94 91 89 91 90 94 86 94 96 94 95 96 95 96 98 98 99 99 99 99 99 99 99
52 38 40 41 45 54 47 59 47 34 33 29 29 42 57 66 69 69 73 87 81 69 73 80 86 92 93 91 84 94 76 78 77 75 71 75 88 95 96 98 98 99 99 99 99 99 99 98 98
40 42 40 49 56 72 51 51 42 33 32 29 28 35 49 61 66 64 59 55 58 62 65 68 74 76 77 72 80 70 68 70 67 71 81 87 85 89 95 96 97 97 97 97 98 98 97 99 96
47 55 78 85 84 76 40 44 35 33 23 26 27 35 47 55 67 58 54 51 51 57 58 59 61 60 62 63 66 66 65 64 68 78 84 83 83 92 95 94 96 97 96 96 96 96 97 99 97
51 54 70 73 63 56 43 48 32 29 29 28 24 30 45 61 62 54 49 48 48 47 47 51 52 57 59 60 58 65 64 70 70 77 76 81 87 95 95 96 96 95 94 95 96 97 98 96 98
52 61 43 65 79 80 46 41 48 38 38 34 35 48 57 62 62 53 48 46 45 46 49 54 54 52 57 62 65 65 67 67 72 76 79 87 94 94 95 94 94 94 94 94 94 97 96 96 97
43 39 66 65 90 70 63 63 42 49 33 31 39 54 57 58 60 54 50 47 44 41 42 48 46 49 58 60 61 61 63 65 72 78 80 85 96 94 93 93 93 92 92 92 93 95 94 94 96
51 54 51 62 76 66 58 44 41 41 43 42 42 52 57 60 60 56 50 48 42 39 42 48 49 52 54 62 62 64 67 70 75 78 85 93 95 94 93 93 93 93 93 93 93 92 93 95 96
39 48 46 72 68 63 58 48 42 44 46 45 45 54 57 56 57 54 51 47 42 42 44 43 48 51 53 54 62 66 74 78 86 94 96 94 95 94 93 93 94 93 93 92 92 89 92 92 91
Wind_Speed
5 3 2 5 6 6 4 7 4 8 4 5 1 5 6 4 2 4 3 6 12 13 13 11 12 12 13 13 16 18 18 19 19 18 17 16 15 15 15 14 14 13 14 13 13 13 13 12 12
3 3 5 3 7 3 6 5 5 7 2 5 7 3 4 3 3 2 5 8 13 12 13 12 15 13 13 13 15 17 17 18 17 17 16 15 13 13 13 13 13 12 13 12 12 12 11 10 9
3 3 4 5 4 5 5 4 8 5 5 1 4 5 2 4 0 2 2 14 13 11 11 11 15 15 13 13 14 15 16 15 15 15 15 14 13 12 11 12 11 12 13 12 11 11 9 8 9
3 5 5 5 5 7 6 8 6 4 3 1 4 6 3 5 3 4 10 13 14 10 10 13 15 15 14 14 14 14 14 14 14 13 13 13 13 12 11 10 10 11 12 11 10 10 7 7 8
4 3 3 3 5 7 5 6 5 5 2 0 2 5 4 3 4 9 13 13 13 10 8 11 15 15 14 15 13 12 13 13 13 13 12 12 12 11 10 10 8 9 10 10 9 8 6 6 7
4 4 3 2 6 6 8 7 4 3 2 3 4 4 4 2 3 10 11 11 10 12 9 8 12 11 10 11 11 11 11 11 12 12 12 11 11 10 10 9 9 8 8 8 7 6 5 5 6
6 4 5 4 4 5 6 8 3 4 4 6 6 6 4 3 5 11 9 9 11 10 11 10 10 9 12 11 10 10 10 9 10 10 11 11 10 10 9 9 9 8 7 6 6 5 3 2 4
6 5 3 3 2 6 5 10 5 5 7 3 4 4 5 5 8 10 9 9 12 10 8 11 11 12 10 7 10 11 10 10 10 10 10 8 8 8 8 8 7 8 7 6 5 3 2 1 3
4 3 3 4 4 5 6 7 8 1 6 4 7 5 4 12 11 12 9 6 8 8 8 8 10 10 9 9 7 9 11 11 10 8 7 6 4 5 5 5 7 7 7 6 5 4 2 1 3
3 4 10 9 5 5 12 3 6 3 2 4 3 4 1 9 11 15 13 11 10 12 10 9 10 10 9 7 9 5 6 5 4 5 6 4 5 4 4 5 6 7 7 7 6 5 4 2 1
4 6 7 6 8 6 7 11 4 5 4 6 9 7 4 7 7 8 9 12 13 12 9 9 8 8 9 7 6 5 3 3 3 5 6 4 3 3 2 2 3 3 7 3 4 2 2 3 2
5 7 7 4 6 3 6 6 5 7 8 6 9 5 7 10 9 11 11 11 12 11 10 11 10 9 7 5 6 6 5 4 4 5 6 5 3 4 4 3 4 3 3 4 4 2 3 4 4
5 4 7 7 5 5 4 9 9 9 8 7 7 8 10 11 10 7 8 6 7 10 11 12 11 9 8 8 6 5 6 6 6 5 6 5 4 5 4 4 4 5 4 3 3 3 3 4 4
4 6 8 5 3 6 5 7 5 9 5 8 10 13 11 14 16 10 10 10 10 9 12 13 14 11 9 7 8 6 5 6 5 6 7 7 5 5 4 4 4 4 4 4 4 4 4 4 3
3 6 8 10 5 8 9 5 9 11 8 6 10 12 16 19 10 15 17 13 12 11 9 14 13 11 11 8 7 6 6 5 5 5 5 6 5 5 5 4 3 5 4 5 4 4 3 4 3
3 1 5 2 3 4 9 10 12 11 6 10 7 10 14 17 16 13 13 14 11 11 15 12 12 15 13 9 7 5 5 5 6 4 4 6 6 6 5 4 4 5 4 4 3 3 4 5 5
2 5 8 12 7 4 6 6 15 4 7 11 10 8 10 7 8 10 14 15 16 17 16 15 14 14 13 10 6 6 7 5 5 4 4 6 7 8 6 5 5 4 3 3 3 4 4 4 4
13 8 6 8 3 3 5 10 14 10 7 12 11 7 10 11 16 13 12 10 16 16 16 15 13 12 12 6 5 3 3 4 4 5 6 6 5 6 6 4 5 4 3 4 4 5 4 3 4
11 10 7 4 6 3 9 6 12 17 6 10 13 9 12 15 8 6 5 6 9 10 13 15 16 14 12 7 6 5 4 3 3 3 6 7 6 6 6 5 4 5 5 5 4 2 4 3 2
17 16 11 10 15 7 9 17 15 16 8 10 15 9 13 8 10 8 7 6 13 15 16 15 14 13 12 9 4 2 3 2 1 2 2 2 4 4 4 4 3 3 2 3 3 1 2 1 1
19 21 16 14 12 20 5 19 18 17 6 7 8 8 14 22 19 12 9 7 9 13 15 15 15 15 12 11 7 3 4 3 2 2 2 1 3 3 2 3 1 1 1 2 2 3 4 3 2
23 15 15 15 6 14 6 13 8 6 10 5 6 9 14 14 10 10 9 9 12 8 7 11 12 13 11 10 7 7 4 4 2 2 2 3 3 3 3 2 3 2 1 2 3 1 0 1 1
15 10 15 14 16 14 23 16 7 11 15 17 9 11 15 17 19 18 16 12 7 9 14 10 9 8 8 8 9 6 6 4 3 3 6 4 5 5 5 5 5 5 3 3 4 4 3 2 1
5 9 15 9 8 21 13 18 17 16 20 15 9 14 19 16 14 10 7 10 9 7 9 11 13 8 8 8 7 10 11 7 5 4 5 4 4 4 6 7 6 6 6 5 5 5 5 3 2
21 10 5 7 9 16 11 16 21 6 18 18 16 11 18 18 14 14 15 14 12 12 13 12 15 13 10 10 8 8 9 8 8 6 5 5 2 3 5 5 6 5 5 6 6 6 6 5 5
24 20 11 15 18 10 8 23 17 11 10 12 17 10 16 16 15 17 17 15 14 12 10 12 13 13 10 9 9 7 7 5 4 5 4 3 3 4 4 6 6 6 6 6 5 4 4 5 4
18 22 23 3 2 1 12 14 3 4 4 7 8 10 16 18 17 20 17 16 16 14 12 13 12 10 9 8 9 7 7 7 6 6 5 4 4 4 5 6 6 6 6 6 6 4 4 5 4
19 15 13 11 9 21 8 9 12 10 19 15 9 12 16 17 17 17 17 17 14 13 13 12 13 13 10 9 7 7 7 7 6 6 6 6 6 5 6 5 6 6 6 6 6 4 4 5 4
19 16 15 13 14 11 17 18 9 14 12 12 12 13 18 20 20 19 18 15 14 13 12 11 11 11 10 10 7 8 6 6 6 5 5 6 6 6 6 5 5 5 5 5 6 4 5 5 5
27 34 28 12 31 20 16 29 5 8 10 10 10 8 12 15 15 15 17 17 16 13 11 13 12 12 12 9 7 7 7 7 6 6 6 6 6 6 6 6 6 5 5 5 5 5 4 5 5
Wind_Direction
123 112 91 44 54 60 284 269 265 285 344 318 185 134 147 31 90 214 8 147 133 143 154 143 134 133 130 129 123 122 123 125 126 125 128 129 131 129 126 123 122 122 120 116 115 115 115 113 107
122 116 43 79 86 67 267 253 260 278 230 136 59 52 59 113 227 150 128 147 142 142 149 145 136 135 135 135 130 129 131 130 131 131 130 127 125 126 129 127 125 124 122 120 116 112 109 107 106
119 53 88 96 108 190 237 261 317 300 268 24 95 32 37 148 288 322 108 139 129 137 145 144 138 136 143 143 137 138 135 133 133 132 131 130 130 131 129 128 130 131 129 126 124 119 116 112 102
109 17 38 94 204 250 227 268 273 296 214 89 121 99 264 228 194 150 131 138 127 131 143 147 143 141 148 150 148 143 136 136 136 134 134 136 136 138 135 135 139 138 135 133 130 123 122 115 103
44 57 71 100 236 258 258 262 266 250 219 162 340 190 215 248 287 145 148 146 143 136 149 155 143 145 158 155 147 142 140 143 139 140 139 141 142 143 144 144 146 143 135 134 130 127 119 93 85
53 102 59 223 235 269 286 244 250 206 136 197 107 116 255 53 133 144 150 145 145 135 133 161 135 141 151 143 141 146 145 149 146 147 145 149 150 151 156 152 152 147 133 134 133 128 121 102 92
118 97 211 204 232 311 263 336 251 197 165 237 145 135 266 289 172 156 151 136 131 133 134 151 137 143 152 151 153 145 151 151 147 153 152 160 160 162 164 162 160 148 148 140 134 131 123 101 72
113 102 208 226 162 271 273 332 282 165 205 99 176 206 198 166 128 120 128 135 133 137 142 142 148 164 163 159 155 156 151 150 159 164 161 158 161 169 170 169 169 156 154 153 141 137 133 40 29
142 91 210 246 186 246 290 356 322 314 132 214 192 195 75 126 131 123 127 131 136 135 139 149 163 165 158 165 163 149 160 160 163 160 148 144 158 174 173 174 180 170 167 170 165 171 199 310 342
152 169 205 195 207 268 299 304 306 349 283 269 271 252 80 140 145 153 168 159 157 156 167 167 166 162 159 165 171 155 165 152 154 145 155 167 164 169 178 189 187 188 188 195 201 203 215 251 307
211 233 205 230 243 236 282 293 234 232 241 222 210 222 174 142 138 171 173 168 174 164 166 173 164 168 160 165 166 172 155 142 138 161 166 171 164 185 187 198 202 195 202 208 214 229 260 269 285
227 233 231 250 239 217 239 272 238 231 213 226 204 213 167 160 178 183 193 182 164 163 169 168 171 172 157 153 177 178 164 155 174 180 178 171 172 187 194 194 202 196 192 204 210 216 248 264 268
224 254 255 220 258 248 256 248 250 224 237 242 142 162 197 194 195 187 188 196 165 175 172 173 168 176 170 171 171 171 170 174 186 183 185 177 178 195 186 196 184 204 200 203 221 226 243 257 269
276 281 276 260 231 234 214 260 163 264 195 202 167 187 200 210 199 192 192 193 195 184 181 169 178 175 172 181 181 182 178 191 187 194 197 193 187 186 197 191 203 199 196 197 205 215 225 243 235
252 314 315 278 204 236 158 250 224 245 276 199 199 199 192 213 216 205 204 198 191 195 171 186 165 171 176 185 186 187 190 182 191 199 198 197 190 194 194 198 205 223 207 199 209 229 228 239 222
309 121 315 5 100 268 137 268 249 236 222 261 228 210 202 207 205 212 206 208 194 168 182 169 176 184 176 181 183 194 195 184 191 186 185 193 194 196 199 200 212 212 198 197 202 210 225 230 218
269 235 231 282 202 227 177 235 257 214 229 244 250 190 209 189 180 199 210 208 196 182 178 178 175 182 181 184 168 190 179 188 199 180 184 195 196 191 196 202 219 196 208 215 213 228 205 212 227
218 229 233 223 221 199 262 240 275 269 221 244 248 200 185 175 193 197 201 213 204 184 177 171 172 176 177 164 164 142 140 162 188 202 195 188 199 196 198 206 207 176 203 220 220 223 220 219 223
265 257 230 246 257 243 255 258 265 283 264 251 254 194 180 192 193 193 212 179 148 150 157 175 178 171 156 159 160 150 158 154 174 176 173 179 183 188 187 203 197 201 204 222 208 218 237 244 210
237 251 251 275 273 284 281 280 274 274 239 229 246 203 187 159 172 197 189 183 171 165 162 167 179 166 167 165 142 138 145 174 129 145 141 138 138 163 207 196 241 238 258 275 294 297 334 317 313
230 230 235 243 293 280 262 274 265 263 252 243 238 204 186 176 177 185 189 180 154 163 168 168 164 164 162 152 127 100 93 77 112 109 145 158 156 171 173 233 207 315 254 282 229 213 215 231 221
232 210 237 245 246 258 140 282 243 259 268 219 206 164 179 172 173 176 180 173 165 155 138 140 144 151 151 147 144 149 151 139 170 174 99 69 64 92 80 64 60 57 36 17 355 6 122 246 274
247 207 222 239 251 277 260 271 247 214 246 258 209 193 186 180 179 175 183 173 154 153 146 133 127 130 134 139 135 126 109 116 136 104 99 71 59 67 75 88 82 74 72 64 56 43 37 46 354
196 204 227 220 228 249 228 249 245 231 221 237 225 191 187 187 180 163 154 140 141 138 130 134 132 122 124 122 128 136 138 142 122 113 99 91 76 54 51 70 74 63 60 46 40 37 38 21 12
201 176 221 235 211 252 176 232 240 254 215 214 224 186 190 182 167 154 154 159 155 155 142 134 134 132 127 127 128 130 129 131 127 128 124 120 105 74 84 84 76 72 66 55 45 45 41 32 21
205 190 195 210 228 249 181 237 239 219 181 188 216 197 183 172 170 164 163 159 154 152 143 132 134 130 127 124 128 124 122 120 118 121 116 108 104 120 104 89 84 80 73 66 58 47 42 35 33
195 206 201 334 260 248 229 262 311 173 191 205 186 151 170 174 172 168 163 163 162 157 149 140 133 129 131 136 120 130 124 124 132 125 113 109 120 116 110 110 106 97 87 77 69 59 42 31 32
204 183 184 225 239 241 238 253 239 215 212 225 197 178 177 181 174 169 164 159 158 155 147 142 143 147 143 134 136 142 144 137 136 130 123 124 125 116 118 103 94 91 90 87 79 53 24 24 3
197 214 198 189 221 235 256 256 191 205 206 202 199 185 173 175 176 172 165 157 151 147 149 146 141 140 143 137 141 137 138 128 119 120 126 135 128 130 123 127 117 101 81 65 73 57 50 26 10
214 207 199 200 215 227 248 260 168 191 191 198 212 177 169 173 167 166 160 151 150 148 151 153 155 153 151 140 130 131 126 119 111 111 112 107 104 91 100 93 88 87 88 78 71 65 47 24 357